Bangkok (Suvarnabhumi), Thailand

8:04 AM +07 on April 27, 2017 (GMT +0700)
Bangkok (Suvarnabhumi)

Weather History for VTBS - June, 2013

Change the Weather History Date:

Tuesday, June 25, 2013

  Actual Average (VTBU) Record (VTBU)
Temperature  
Mean Temperature 85 °F -  
Max Temperature 91 °F 90 °F 95 °F (2003)
Min Temperature 79 °F 77 °F 75 °F (2014)
Cooling Degree Days 20    
Growing Degree Days 35 (Base 50)    
Moisture  
Dew Point 75 °F    
Average Humidity 68    
Maximum Humidity 81    
Minimum Humidity 54    
Precipitation  
Precipitation 0.00 in 0.18 in - ()
Sea Level Pressure  
Sea Level Pressure 29.82 in    
Wind  
Wind Speed 8 mph ()    
Max Wind Speed 14 mph    
Max Gust Speed -    
Visibility 6.2 miles    
Events Rain    
Averages and records for this station are not official NWS values.
T = Trace of Precipitation, MM = Missing Value Source: Averaged Metar Reports

Daily Weather History Graph

Daily Weather History Graph

Search for Another Location

Airport or City:

Trip Planner

Search our weather history database for the weather conditions in past years. The results will help you decide how hot, cold, wet, or windy it might be!

Date:

Astronomy

Jun. 25, 2013 Rise Set
Actual Time 5:51 AM +07 6:46 PM +07
Civil Twilight 5:27 AM +07 7:09 PM +07
Nautical Twilight 5:00 AM +07 7:37 PM +07
Astronomical Twilight 4:31 AM +07 8:05 PM +07
Moon 8:35 PM +07 (6/25) 7:33 AM +07 (6/25)
Length of Visible Light 13h 41m
Length of Day
12h 54m
Waning Gibbous, 95% of the Moon is Illuminated
Jun 25
Waning Gibbous
Jun 30
Last Quarter
Jul 8
New
Jul 16
First Quarter
Jul 23
Full

Hourly Weather History & Observations

Time (+07) Temp. Heat Index Dew Point Humidity Pressure Visibility Wind Dir Wind Speed Gust Speed Precip Events Conditions
12:00 AM 84.2 °F 92.3 °F 75.2 °F 74% 29.83 in 6.2 mi SSW 9.2 mph - N/A   Mostly Cloudy
12:30 AM 84.2 °F 92.3 °F 75.2 °F 74% 29.83 in 6.2 mi SSW 11.5 mph - N/A   Mostly Cloudy
1:00 AM 82 °F - 77 °F 80% 29.82 in 6 mi ESE 6.9 mph - -   Overcast
1:00 AM 84.2 °F 90.9 °F 73.4 °F 70% 29.80 in 6.2 mi SSW 10.4 mph - N/A   Mostly Cloudy
1:30 AM 84.2 °F 92.3 °F 75.2 °F 74% 29.83 in 6.2 mi South 8.1 mph - N/A   Mostly Cloudy
2:00 AM 84.2 °F 90.9 °F 73.4 °F 70% 29.83 in 6.2 mi SSW 11.5 mph - N/A   Mostly Cloudy
2:30 AM 84.2 °F 90.9 °F 73.4 °F 70% 29.80 in 6.2 mi SW 8.1 mph - N/A   Mostly Cloudy
3:00 AM 84.2 °F 92.3 °F 75.2 °F 74% 29.80 in 6.2 mi SW 8.1 mph - N/A   Mostly Cloudy
3:30 AM 84.2 °F 92.3 °F 75.2 °F 74% 29.80 in 6.2 mi SSW 5.8 mph - N/A   Mostly Cloudy
4:00 AM 84.2 °F 92.3 °F 75.2 °F 74% 29.80 in 6.2 mi South 6.9 mph - N/A Rain Light Rain
4:30 AM 82.4 °F 89.5 °F 75.2 °F 79% 29.80 in 6.2 mi South 9.2 mph - N/A Rain Light Rain
5:00 AM 82.4 °F 89.5 °F 75.2 °F 79% 29.80 in 6.2 mi South 8.1 mph - N/A   Mostly Cloudy
5:30 AM 84.2 °F 92.3 °F 75.2 °F 74% 29.80 in 6.2 mi SW 8.1 mph - N/A   Mostly Cloudy
6:00 AM 82.4 °F 89.5 °F 75.2 °F 79% 29.83 in 6.2 mi SW 5.8 mph - N/A   Mostly Cloudy
6:30 AM 84.2 °F 92.3 °F 75.2 °F 74% 29.83 in 6.2 mi SW 5.8 mph - N/A   Mostly Cloudy
7:00 AM 82 °F - 77 °F 81% 29.82 in 6 mi Calm Calm - -   Overcast
7:00 AM 84.2 °F 92.3 °F 75.2 °F 74% 29.83 in 6.2 mi SW 5.8 mph - N/A   Mostly Cloudy
7:30 AM 84.2 °F 92.3 °F 75.2 °F 74% 29.83 in 6.2 mi SW 5.8 mph - N/A   Mostly Cloudy
8:00 AM 86.0 °F 95.1 °F 75.2 °F 70% 29.86 in 6.2 mi SSW 10.4 mph - N/A   Mostly Cloudy
8:30 AM 86.0 °F 93.4 °F 73.4 °F 66% 29.86 in 6.2 mi SSW 12.7 mph - N/A   Mostly Cloudy
9:00 AM 87.8 °F 97.6 °F 75.2 °F 66% 29.83 in 6.2 mi South 11.5 mph - N/A   Mostly Cloudy
9:30 AM 87.8 °F 93.8 °F 71.6 °F 58% 29.86 in 6.2 mi SSW 9.2 mph - N/A   Mostly Cloudy
10:00 AM 89.6 °F 99.8 °F 75.2 °F 62% 29.86 in 6.2 mi South 10.4 mph - N/A   Mostly Cloudy
10:30 AM 87.8 °F 95.6 °F 73.4 °F 62% 29.86 in 6.2 mi South 13.8 mph - N/A   Mostly Cloudy
11:00 AM 89.6 °F 99.8 °F 75.2 °F 62% 29.86 in 6.2 mi SSW 13.8 mph - N/A   Mostly Cloudy
11:30 AM 89.6 °F 96.2 °F 71.6 °F 55% 29.86 in 6.2 mi SW 12.7 mph - N/A   Mostly Cloudy
12:00 PM 89.6 °F 98.2 °F 73.4 °F 59% 29.86 in 6.2 mi SSW 12.7 mph - N/A   Mostly Cloudy
12:30 PM 89.6 °F 99.8 °F 75.2 °F 62% 29.86 in 6.2 mi South 11.5 mph - N/A   Mostly Cloudy
1:00 PM 91 °F - 76 °F 54% 29.81 in 6 mi Calm Calm - -   Overcast
1:00 PM 89.6 °F 99.8 °F 75.2 °F 62% 29.83 in 6.2 mi SSW 11.5 mph - N/A   Mostly Cloudy
1:30 PM 87.8 °F 97.6 °F 75.2 °F 66% 29.83 in 6.2 mi SSW 10.4 mph - N/A   Mostly Cloudy
2:00 PM 87.8 °F 97.6 °F 75.2 °F 66% 29.83 in 6.2 mi SSW 10.4 mph - N/A   Mostly Cloudy
2:30 PM 87.8 °F 97.6 °F 75.2 °F 66% 29.80 in 6.2 mi SSW 8.1 mph - N/A   Mostly Cloudy
3:00 PM 87.8 °F 95.6 °F 73.4 °F 62% 29.80 in 6.2 mi SW 8.1 mph - N/A   Mostly Cloudy
3:30 PM 87.8 °F 95.6 °F 73.4 °F 62% 29.80 in 6.2 mi SW 8.1 mph - N/A   Mostly Cloudy
4:00 PM 87.8 °F 93.8 °F 71.6 °F 58% 29.77 in 6.2 mi SSW 6.9 mph - N/A   Mostly Cloudy
4:30 PM 87.8 °F 95.6 °F 73.4 °F 62% 29.77 in 6.2 mi SSW 8.1 mph - N/A   Mostly Cloudy
5:00 PM 87.8 °F 95.6 °F 73.4 °F 62% 29.77 in 6.2 mi South 9.2 mph - N/A   Mostly Cloudy
5:30 PM 87.8 °F 95.6 °F 73.4 °F 62% 29.77 in 6.2 mi SSW 10.4 mph - N/A   Mostly Cloudy
6:00 PM 86.0 °F 93.4 °F 73.4 °F 66% 29.77 in 6.2 mi South 8.1 mph - N/A   Mostly Cloudy
6:30 PM 86.0 °F 93.4 °F 73.4 °F 66% 29.80 in - SW 9.2 mph - N/A   Mostly Cloudy
7:00 PM 87 °F - 77 °F 64% 29.80 in 6 mi Calm Calm - -   Overcast
7:00 PM 86.0 °F 93.4 °F 73.4 °F 66% 29.80 in 6.2 mi SSW 10.4 mph - N/A   Mostly Cloudy
7:30 PM 86.0 °F 93.4 °F 73.4 °F 66% 29.80 in 6.2 mi SW 8.1 mph - N/A   Mostly Cloudy
8:00 PM 86.0 °F 95.1 °F 75.2 °F 70% 29.83 in 6.2 mi SW 6.9 mph - N/A   Mostly Cloudy
8:30 PM 86.0 °F 93.4 °F 73.4 °F 66% 29.83 in 6.2 mi SW 8.1 mph - N/A   Mostly Cloudy
9:00 PM 84.2 °F 92.3 °F 75.2 °F 74% 29.83 in 6.2 mi SSW 8.1 mph - N/A   Mostly Cloudy
9:30 PM 84.2 °F 92.3 °F 75.2 °F 74% 29.86 in 6.2 mi SSW 10.4 mph - N/A   Mostly Cloudy
10:00 PM 84.2 °F 92.3 °F 75.2 °F 74% 29.86 in 6.2 mi SW 8.1 mph - N/A   Mostly Cloudy
10:30 PM 84.2 °F 92.3 °F 75.2 °F 74% 29.86 in 6.2 mi SW 6.9 mph - N/A   Mostly Cloudy
11:00 PM 84.2 °F 92.3 °F 75.2 °F 74% 29.86 in 6.2 mi SW 6.9 mph - N/A   Mostly Cloudy
11:30 PM 84.2 °F 92.3 °F 75.2 °F 74% 29.86 in 6.2 mi SSW 8.1 mph - N/A   Mostly Cloudy